Weather History for Killeen, TX

Change the Weather History Date:

Monday, February 17, 2014

  Actual Average Record
Temperature  
Mean Temperature 64 °F -  
Max Temperature 77 °F 61 °F 82 °F (2000)
Min Temperature 51 °F 42 °F 30 °F (2001)
Degree Days  
Heating Degree Days 1    
Growing Degree Days 14 (Base 50)    
Moisture  
Dew Point 41 °F    
Average Humidity 49    
Maximum Humidity 88    
Minimum Humidity 14    
Precipitation  
Precipitation 0.00 in - - ()
Sea Level Pressure  
Sea Level Pressure 30.04 in    
Wind  
Wind Speed 11 mph (NNW)    
Max Wind Speed 29 mph    
Max Gust Speed 36 mph    
Visibility 10 miles    
Events      
Averages and records for this station are not official NWS values.
T = Trace of Precipitation, MM = Missing Value Source: NWS Daily Summary

Daily Weather History Graph

Daily Weather History Graph

Search for Another Location

Airport:

Trip Planner

Search our weather history database for the weather conditions in past years. The results will help you decide how hot, cold, wet, or windy it might be!

Date:

Astronomy

Feb. 17, 2014 Rise Set
Actual Time 7:09 AM CST 6:19 PM CST
Civil Twilight 6:45 AM CST 6:44 PM CST
Nautical Twilight 6:16 AM CST 7:12 PM CST
Astronomical Twilight 5:48 AM CST 7:41 PM CST
Moon 9:01 PM CST (2/17) 8:23 AM CST (2/17)
Length of Visible Light 11h 59m
Length of Day
11h 10m
Waning Gibbous, 93% of the Moon is Illuminated
Feb 17
Waning Gibbous
Feb 22
Last Quarter
Mar 1
New
Mar 8
First Quarter
Mar 16
Full

Hourly Weather History & Observations

Time (CST) Temp. Dew Point Humidity Pressure Visibility Wind Dir Wind Speed Gust Speed Precip Events Conditions
12:15 AM 60.8 °F 55.4 °F 82% 29.94 in 6.0 mi South 8.1 mph - N/A   Overcast
12:35 AM 60.8 °F 57.2 °F 88% 29.93 in 7.0 mi South 10.4 mph - N/A   Overcast
12:55 AM 62.6 °F 57.2 °F 82% 29.93 in 7.0 mi South 10.4 mph - N/A   Overcast
1:15 AM 62.6 °F 57.2 °F 82% 29.93 in 8.0 mi SSW 8.1 mph 16.1 mph N/A   Overcast
1:35 AM 62.6 °F 59.0 °F 88% 29.93 in 8.0 mi SSW 12.7 mph 24.2 mph N/A   Overcast
1:55 AM 62.6 °F 59.0 °F 88% 29.93 in 8.0 mi SSW 15.0 mph 18.4 mph N/A   Overcast
2:15 AM 64.4 °F 59.0 °F 83% 29.92 in 8.0 mi South 16.1 mph - N/A   Overcast
2:35 AM 64.4 °F 59.0 °F 83% 29.91 in 9.0 mi South 13.8 mph 20.7 mph N/A   Overcast
2:55 AM 64.4 °F 59.0 °F 83% 29.92 in 10.0 mi South 12.7 mph - N/A   Overcast
3:15 AM 64.4 °F 59.0 °F 83% 29.91 in 10.0 mi South 16.1 mph 21.9 mph N/A   Overcast
3:35 AM 64.4 °F 59.0 °F 83% 29.92 in 10.0 mi SSW 11.5 mph - N/A   Overcast
3:55 AM 64.4 °F 59.0 °F 83% 29.90 in 10.0 mi SSW 15.0 mph 18.4 mph N/A   Overcast
4:15 AM 64.4 °F 59.0 °F 83% 29.91 in 10.0 mi SSW 12.7 mph - N/A   Overcast
4:35 AM 64.4 °F 59.0 °F 83% 29.91 in 10.0 mi SSW 10.4 mph - N/A   Overcast
4:55 AM 64.4 °F 59.0 °F 83% 29.93 in 10.0 mi SSW 9.2 mph - N/A   Overcast
5:15 AM 64.4 °F 59.0 °F 83% 29.94 in 10.0 mi SW 8.1 mph - N/A   Overcast
5:35 AM 64.4 °F 59.0 °F 83% 29.95 in 10.0 mi SSW 8.1 mph - N/A   Overcast
5:55 AM 64.4 °F 57.2 °F 77% 29.95 in 10.0 mi SSW 11.5 mph 17.3 mph N/A   Overcast
6:15 AM 64.4 °F 57.2 °F 77% 29.95 in 10.0 mi SSW 10.4 mph - N/A   Overcast
6:35 AM 62.6 °F 57.2 °F 82% 29.95 in 9.0 mi SSW 9.2 mph - N/A   Mostly Cloudy
6:55 AM 62.6 °F 57.2 °F 82% 29.95 in 9.0 mi SSW 9.2 mph - N/A   Clear
7:15 AM 62.6 °F 57.2 °F 82% 29.95 in 7.0 mi SSW 9.2 mph - N/A   Partly Cloudy
7:35 AM 62.6 °F 57.2 °F 82% 29.97 in 7.0 mi SSW 5.8 mph - N/A   Mostly Cloudy
7:55 AM 64.4 °F 59.0 °F 83% 29.99 in 7.0 mi SW 5.8 mph - N/A   Overcast
8:15 AM 64.4 °F 59.0 °F 83% 30.01 in 8.0 mi WSW 5.8 mph - N/A   Overcast
8:35 AM 66.2 °F 59.0 °F 78% 30.01 in 9.0 mi WSW 9.2 mph - N/A   Mostly Cloudy
8:55 AM 66.2 °F 59.0 °F 78% 30.05 in 10.0 mi West 9.2 mph - N/A   Partly Cloudy
9:15 AM 68.0 °F 59.0 °F 73% 30.06 in 9.0 mi West 11.5 mph - N/A   Partly Cloudy
9:35 AM 69.8 °F 60.8 °F 73% 30.07 in 10.0 mi West 11.5 mph - N/A   Clear
9:55 AM 69.8 °F 59.0 °F 68% 30.08 in 10.0 mi NW 10.4 mph 18.4 mph N/A   Clear
10:15 AM 69.8 °F 57.2 °F 64% 30.08 in 10.0 mi North 12.7 mph 20.7 mph N/A   Partly Cloudy
10:35 AM 71.6 °F 53.6 °F 53% 30.09 in 10.0 mi North 25.3 mph 32.2 mph N/A   Partly Cloudy
10:55 AM 71.6 °F 44.6 °F 38% 30.10 in 10.0 mi North 25.3 mph 35.7 mph N/A   Clear
11:15 AM 71.6 °F 39.2 °F 31% 30.12 in 10.0 mi North 28.8 mph 33.4 mph N/A   Clear
11:35 AM 71.6 °F 35.6 °F 27% 30.12 in 10.0 mi NNE 25.3 mph 35.7 mph N/A   Clear
11:55 AM 73.4 °F 35.6 °F 25% 30.12 in 10.0 mi North 21.9 mph 29.9 mph N/A   Clear
12:15 PM 73.4 °F 33.8 °F 23% 30.12 in 10.0 mi NNE 18.4 mph 29.9 mph N/A   Clear
12:35 PM 73.4 °F 32.0 °F 22% 30.11 in 10.0 mi North 19.6 mph 27.6 mph N/A   Clear
12:55 PM 73.4 °F 28.4 °F 19% 30.10 in 10.0 mi NNE 21.9 mph 32.2 mph N/A   Clear
1:15 PM 75.2 °F 28.4 °F 18% 30.10 in 10.0 mi NNE 17.3 mph 24.2 mph N/A   Clear
1:35 PM 75.2 °F 28.4 °F 18% 30.09 in 10.0 mi NNE 19.6 mph 28.8 mph N/A   Clear
1:55 PM 75.2 °F 26.6 °F 17% 30.08 in 10.0 mi NE 20.7 mph 26.5 mph N/A   Clear
2:15 PM 75.2 °F 26.6 °F 17% 30.08 in 10.0 mi NE 18.4 mph - N/A   Clear
2:35 PM 75.2 °F 26.6 °F 17% 30.08 in 10.0 mi NNE 16.1 mph 21.9 mph N/A   Clear
2:55 PM 77.0 °F 26.6 °F 16% 30.08 in 10.0 mi NNE 11.5 mph 23.0 mph N/A   Clear
3:15 PM 75.2 °F 26.6 °F 17% 30.07 in 10.0 mi NNE 16.1 mph 26.5 mph N/A   Clear
3:35 PM 75.2 °F 24.8 °F 15% 30.08 in 10.0 mi NNE 15.0 mph 21.9 mph N/A   Clear
3:55 PM 75.2 °F 24.8 °F 15% 30.08 in 10.0 mi NNE 18.4 mph 23.0 mph N/A   Clear
4:15 PM 75.2 °F 24.8 °F 15% 30.08 in 10.0 mi NNE 17.3 mph - N/A   Clear
4:35 PM 75.2 °F 23.0 °F 14% 30.08 in 10.0 mi North 15.0 mph - N/A   Clear
4:55 PM 73.4 °F 21.2 °F 14% 30.08 in 10.0 mi North 13.8 mph 20.7 mph N/A   Clear
5:15 PM 71.6 °F 23.0 °F 16% 30.09 in 10.0 mi NNE 13.8 mph - N/A   Clear
5:35 PM 71.6 °F 24.8 °F 17% 30.09 in 10.0 mi NE 10.4 mph - N/A   Clear
5:55 PM 69.8 °F 24.8 °F 18% 30.09 in 10.0 mi NE 6.9 mph - N/A   Clear
6:15 PM 66.2 °F 24.8 °F 21% 30.09 in 10.0 mi NE 4.6 mph - N/A   Clear
6:35 PM 64.4 °F 26.6 °F 24% 30.10 in 10.0 mi NNE 4.6 mph - N/A   Clear
6:55 PM 64.4 °F 26.6 °F 24% 30.10 in 10.0 mi NNE 5.8 mph - N/A   Clear
7:15 PM 64.4 °F 26.6 °F 24% 30.11 in 10.0 mi North 6.9 mph - N/A   Clear
7:35 PM 62.6 °F 26.6 °F 26% 30.11 in 10.0 mi North 5.8 mph - N/A   Clear
7:55 PM 62.6 °F 26.6 °F 26% 30.11 in 10.0 mi North 6.9 mph - N/A   Clear
8:15 PM 60.8 °F 24.8 °F 25% 30.12 in 10.0 mi North 6.9 mph - N/A   Clear
8:35 PM 60.8 °F 26.6 °F 27% 30.12 in 10.0 mi North 5.8 mph - N/A   Clear
8:55 PM 57.2 °F 24.8 °F 29% 30.13 in 10.0 mi North 4.6 mph - N/A   Clear
9:15 PM 59.0 °F 26.6 °F 29% 30.13 in 10.0 mi North 4.6 mph - N/A   Clear
9:35 PM 59.0 °F 26.6 °F 29% 30.14 in 10.0 mi North 4.6 mph - N/A   Clear
9:55 PM 59.0 °F 26.6 °F 29% 30.14 in 10.0 mi North 4.6 mph - N/A   Clear
10:15 PM 59.0 °F 26.6 °F 29% 30.14 in 10.0 mi North 5.8 mph - N/A   Clear
10:35 PM 57.2 °F 26.6 °F 31% 30.14 in 10.0 mi North 5.8 mph - N/A   Clear
10:55 PM 57.2 °F 26.6 °F 31% 30.13 in 10.0 mi North 3.5 mph - N/A   Clear
11:15 PM 57.2 °F 26.6 °F 31% 30.13 in 10.0 mi North 3.5 mph - N/A   Clear
11:35 PM 51.8 °F 26.6 °F 38% 30.13 in 10.0 mi Calm Calm - N/A   Clear
11:55 PM 51.8 °F 26.6 °F 38% 30.13 in 10.0 mi Calm Calm - N/A   Clear